Overview Statistics Trail Chart Weather Telemetry Raw packets
 

This is the latest recevied weather packets stored in our database for station/object OM8AGG-15. If no packets are shown the sender has not sent any weather packets the latest 10 day(s).

<< 34 35 36 37 38 39 40 >>
Time Temp. Humidity Pressure Rain* Wind** Luminosity Snow
1787820532 21.11° C 80% 1020.5 hPa - - - -
1787819632 20° C 80% 1020.6 hPa - - - -
1787818732 20.56° C 80% 1020.6 hPa - - - -
1787817831 20° C 80% 1020.5 hPa - - - -
1787816931 20.56° C 80% 1020.5 hPa - - - -
1787816031 20.56° C 80% 1020.5 hPa - - - -
1787815131 18.33° C 80% 1020.3 hPa - - - -
1787814231 18.89° C 80% 1020.3 hPa - - - -
1787813331 18.89° C 80% 1020.2 hPa - - - -
1787812431 18.89° C 80% 1020.4 hPa - - - -
1787811531 18.89° C 80% 1020.3 hPa - - - -
1787810630 18.33° C 80% 1020.2 hPa - - - -
1787809730 17.78° C 80% 1020 hPa - - - -
1787808830 17.22° C 80% 1020.1 hPa - - - -
1787807933 17.22° C 80% 1019.9 hPa - - - -
1787807930 17.22° C 80% 1019.9 hPa - - - -
1787807030 17.78° C 80% 1019.8 hPa - - - -
1787806130 18.33° C 80% 1020 hPa - - - -
1787805230 17.78° C 80% 1019.9 hPa - - - -
1787804329 16.67° C 79% 1019.5 hPa - - - -
1787803429 16.67° C 79% 1019.5 hPa - - - -
1787802529 16.67° C 79% 1019.5 hPa - - - -
1787801629 16.11° C 79% 1019.7 hPa - - - -
1787800729 16.11° C 79% 1019.6 hPa - - - -
1787799829 16.11° C 79% 1019.7 hPa - - - -

* Rain since midnight (hover to see other rain measurements)
** Current wind speed in m/s (hover to see current wind gust speed)